Time,TemperatureF,DewpointF,PressureIn,WindDirection,WindDirectionDegrees,WindSpeedMPH,WindSpeedGustMPH,Humidity,HourlyPrecipIn,Conditions,Clouds,dailyrainin,SoftwareType,DateUTC
2013-01-09 00:17:00,41.1,38.0,30.41,West,261,10.0,11.0,90,0.00,,,0.00,weatherlink.com 1.10,2013-01-09 05:17:00,
2013-01-09 00:32:00,40.8,38.0,30.40,West,261,6.0,12.0,90,0.00,,,0.00,weatherlink.com 1.10,2013-01-09 05:32:00,
2013-01-09 00:47:00,40.6,38.0,30.40,West,267,8.0,10.0,89,0.00,,,0.00,weatherlink.com 1.10,2013-01-09 05:47:00,
2013-01-09 01:02:00,40.6,38.0,30.40,WSW,254,5.0,10.0,89,0.00,,,0.00,weatherlink.com 1.10,2013-01-09 06:02:00,
2013-01-09 01:17:00,40.0,37.0,30.41,West,263,7.0,8.0,89,0.00,,,0.00,weatherlink.com 1.10,2013-01-09 06:17:00,
2013-01-09 01:32:00,39.9,37.0,30.41,West,265,7.0,8.0,90,0.00,,,0.00,weatherlink.com 1.10,2013-01-09 06:32:00,
2013-01-09 01:47:00,39.9,37.0,30.41,West,259,7.0,11.0,90,0.00,,,0.00,weatherlink.com 1.10,2013-01-09 06:47:00,
2013-01-09 02:02:00,39.9,37.0,30.41,WSW,254,6.0,11.0,90,0.00,,,0.00,weatherlink.com 1.10,2013-01-09 07:02:00,
2013-01-09 02:17:00,39.7,37.0,30.41,WSW,246,6.0,8.0,90,0.00,,,0.00,weatherlink.com 1.10,2013-01-09 07:17:00,
2013-01-09 02:32:00,39.3,37.0,30.41,WSW,252,4.0,10.0,90,0.00,,,0.00,weatherlink.com 1.10,2013-01-09 07:32:00,
2013-01-09 03:02:00,39.4,37.0,30.42,West,261,7.0,11.0,90,0.00,,,0.00,weatherlink.com 1.10,2013-01-09 08:02:00,
2013-01-09 03:17:00,39.7,37.0,30.42,WSW,247,8.0,9.0,90,0.00,,,0.00,weatherlink.com 1.10,2013-01-09 08:17:00,
2013-01-09 03:32:00,39.7,37.0,30.42,West,274,7.0,8.0,90,0.00,,,0.00,weatherlink.com 1.10,2013-01-09 08:32:00,
2013-01-09 03:47:00,39.5,37.0,30.41,West,262,5.0,8.0,91,0.00,,,0.00,weatherlink.com 1.10,2013-01-09 08:47:00,
2013-01-09 04:02:00,38.8,36.0,30.41,NW,304,2.0,5.0,90,0.00,,,0.00,weatherlink.com 1.10,2013-01-09 09:02:00,
2013-01-09 04:17:00,37.6,35.0,30.40,North,5,4.0,4.0,90,0.00,,,0.00,weatherlink.com 1.10,2013-01-09 09:17:00,
2013-01-09 04:32:00,35.4,33.0,30.39,North,11,5.0,5.0,89,0.00,,,0.00,weatherlink.com 1.10,2013-01-09 09:32:00,
2013-01-09 04:47:00,34.4,32.0,30.39,NNE,12,2.0,6.0,91,0.00,,,0.00,weatherlink.com 1.10,2013-01-09 09:47:00,
2013-01-09 05:02:00,35.0,33.0,30.40,North,9,2.0,3.0,93,0.00,,,0.00,weatherlink.com 1.10,2013-01-09 10:02:00,
2013-01-09 05:17:00,35.7,34.0,30.40,WNW,289,2.0,5.0,93,0.00,,,0.00,weatherlink.com 1.10,2013-01-09 10:17:00,
2013-01-09 05:32:00,35.5,34.0,30.40,WNW,289,1.0,3.0,93,0.00,,,0.00,weatherlink.com 1.10,2013-01-09 10:32:00,
2013-01-09 05:47:00,35.7,34.0,30.40,WNW,289,2.0,2.0,93,0.00,,,0.00,weatherlink.com 1.10,2013-01-09 10:47:00,
2013-01-09 06:02:00,35.7,34.0,30.41,NW,326,2.0,5.0,93,0.00,,,0.00,weatherlink.com 1.10,2013-01-09 11:02:00,
2013-01-09 06:17:00,35.0,33.0,30.42,North,355,3.0,6.0,93,0.00,,,0.00,weatherlink.com 1.10,2013-01-09 11:17:00,
2013-01-09 06:32:00,34.8,33.0,30.41,North,355,3.0,5.0,93,0.00,,,0.00,weatherlink.com 1.10,2013-01-09 11:32:00,
2013-01-09 06:47:00,34.3,33.0,30.42,North,355,3.0,4.0,93,0.00,,,0.00,weatherlink.com 1.10,2013-01-09 11:47:00,
2013-01-09 07:02:00,-999.0,-99.9,30.43,North,355,2.0,4.0,-999,0.00,,,0.00,weatherlink.com 1.10,2013-01-09 12:02:00,
2013-01-09 07:17:00,-999.0,-99.9,30.42,North,360,4.0,5.0,-999,0.00,,,0.00,weatherlink.com 1.10,2013-01-09 12:17:00,
2013-01-09 07:33:00,-999.0,-99.9,30.42,NNE,14,2.0,6.0,-999,0.00,,,0.00,weatherlink.com 1.10,2013-01-09 12:33:00,
2013-01-09 07:57:00,-999.0,-99.9,30.42,NNE,14,3.0,5.0,-999,0.00,,,0.00,weatherlink.com 1.10,2013-01-09 12:57:00,
2013-01-09 08:03:00,-999.0,-99.9,30.43,NNE,14,2.0,4.0,-999,0.00,,,0.00,weatherlink.com 1.10,2013-01-09 13:03:00,
2013-01-09 08:18:00,35.6,34.0,30.42,NNE,14,3.0,3.0,95,0.00,,,0.00,weatherlink.com 1.10,2013-01-09 13:18:00,
2013-01-09 08:33:00,37.0,36.0,30.42,NNE,14,3.0,4.0,94,0.00,,,0.00,weatherlink.com 1.10,2013-01-09 13:33:00,
2013-01-09 08:48:00,37.9,36.0,30.42,NNE,14,2.0,2.0,94,0.00,,,0.00,weatherlink.com 1.10,2013-01-09 13:48:00,
2013-01-09 09:03:00,37.7,36.0,30.41,NNE,14,2.0,3.0,93,0.00,,,0.00,weatherlink.com 1.10,2013-01-09 14:03:00,
2013-01-09 09:18:00,38.0,36.0,30.41,NNE,14,0.0,3.0,93,0.00,,,0.00,weatherlink.com 1.10,2013-01-09 14:18:00,
2013-01-09 09:33:00,38.4,36.0,30.41,NNE,14,1.0,3.0,92,0.00,,,0.00,weatherlink.com 1.10,2013-01-09 14:33:00,
2013-01-09 09:48:00,39.4,37.0,30.41,NNE,14,1.0,2.0,92,0.00,,,0.00,weatherlink.com 1.10,2013-01-09 14:48:00,
2013-01-09 10:03:00,40.9,39.0,30.41,NNE,15,3.0,3.0,91,0.00,,,0.00,weatherlink.com 1.10,2013-01-09 15:03:00,
2013-01-09 10:18:00,42.0,39.0,30.40,SSE,168,1.0,6.0,90,0.00,,,0.00,weatherlink.com 1.10,2013-01-09 15:18:00,
2013-01-09 10:33:00,42.5,40.0,30.39,SE,145,5.0,7.0,89,0.00,,,0.00,weatherlink.com 1.10,2013-01-09 15:33:00,
2013-01-09 10:48:00,43.1,40.0,30.39,SSE,148,3.0,8.0,88,0.00,,,0.00,weatherlink.com 1.10,2013-01-09 15:48:00,
2013-01-09 11:03:00,43.2,39.0,30.37,South,184,6.0,8.0,86,0.00,,,0.00,weatherlink.com 1.10,2013-01-09 16:03:00,
2013-01-09 11:18:00,43.0,39.0,30.36,South,188,5.0,7.0,85,0.00,,,0.00,weatherlink.com 1.10,2013-01-09 16:18:00,
2013-01-09 11:33:00,42.6,38.0,30.35,SE,139,5.0,7.0,85,0.00,,,0.00,weatherlink.com 1.10,2013-01-09 16:33:00,
2013-01-09 11:48:00,42.3,38.0,30.33,SE,146,6.0,7.0,85,0.00,,,0.00,weatherlink.com 1.10,2013-01-09 16:48:00,
2013-01-09 12:03:00,42.4,38.0,30.30,ESE,114,5.0,8.0,84,0.00,,,0.00,weatherlink.com 1.10,2013-01-09 17:03:00,
2013-01-09 12:18:00,42.4,38.0,30.29,SE,134,2.0,8.0,83,0.00,,,0.00,weatherlink.com 1.10,2013-01-09 17:18:00,
2013-01-09 12:33:00,42.8,38.0,30.28,SE,146,7.0,9.0,82,0.00,,,0.00,weatherlink.com 1.10,2013-01-09 17:33:00,
2013-01-09 12:48:00,43.1,38.0,30.27,SE,142,3.0,11.0,81,0.00,,,0.00,weatherlink.com 1.10,2013-01-09 17:48:00,
2013-01-09 13:03:00,43.6,38.0,30.26,SSW,202,7.0,11.0,82,0.00,,,0.00,weatherlink.com 1.10,2013-01-09 18:03:00,
2013-01-09 13:18:00,43.8,39.0,30.27,SW,217,8.0,11.0,82,0.00,,,0.00,weatherlink.com 1.10,2013-01-09 18:18:00,
2013-01-09 13:33:00,43.8,39.0,30.26,SSW,213,6.0,9.0,83,0.00,,,0.00,weatherlink.com 1.10,2013-01-09 18:33:00,
2013-01-09 13:48:00,44.0,40.0,30.25,SSW,212,4.0,9.0,85,0.00,,,0.00,weatherlink.com 1.10,2013-01-09 18:48:00,
2013-01-09 14:03:00,44.3,40.0,30.27,WSW,249,4.0,6.0,84,0.00,,,0.00,weatherlink.com 1.10,2013-01-09 19:03:00,
2013-01-09 14:18:00,44.1,40.0,30.28,West,261,5.0,5.0,85,0.00,,,0.00,weatherlink.com 1.10,2013-01-09 19:18:00,
2013-01-09 14:33:00,43.4,39.0,30.27,WSW,252,4.0,6.0,85,0.00,,,0.00,weatherlink.com 1.10,2013-01-09 19:33:00,
2013-01-09 14:48:00,43.2,39.0,30.24,WSW,244,6.0,7.0,85,0.00,,,0.00,weatherlink.com 1.10,2013-01-09 19:48:00,
2013-01-09 15:04:00,43.0,39.0,30.23,WSW,238,5.0,6.0,84,0.00,,,0.00,weatherlink.com 1.10,2013-01-09 20:04:00,
2013-01-09 15:19:00,42.9,38.0,30.23,WSW,244,3.0,5.0,84,0.00,,,0.00,weatherlink.com 1.10,2013-01-09 20:19:00,
2013-01-09 15:34:00,42.9,38.0,30.21,South,190,6.0,7.0,84,0.00,,,0.00,weatherlink.com 1.10,2013-01-09 20:34:00,
2013-01-09 15:49:00,43.5,40.0,30.20,South,191,6.0,9.0,86,0.00,,,0.00,weatherlink.com 1.10,2013-01-09 20:49:00,
2013-01-09 16:04:00,44.2,40.0,30.17,South,178,9.0,10.0,86,0.00,,,0.00,weatherlink.com 1.10,2013-01-09 21:04:00,
2013-01-09 16:19:00,44.5,40.0,30.14,SSE,150,7.0,12.0,85,0.00,,,0.00,weatherlink.com 1.10,2013-01-09 21:19:00,
2013-01-09 16:34:00,44.7,40.0,30.13,South,169,15.0,17.0,83,0.00,,,0.00,weatherlink.com 1.10,2013-01-09 21:34:00,
2013-01-09 16:49:00,44.5,40.0,30.14,SW,221,10.0,16.0,85,0.00,,,0.00,weatherlink.com 1.10,2013-01-09 21:49:00,
2013-01-09 17:04:00,44.8,40.0,30.14,SW,236,13.0,16.0,84,0.00,,,0.00,weatherlink.com 1.10,2013-01-09 22:04:00,
2013-01-09 17:19:00,44.3,40.0,30.14,SW,223,10.0,16.0,85,0.00,,,0.00,weatherlink.com 1.10,2013-01-09 22:19:00,
2013-01-09 17:34:00,44.2,40.0,30.14,SW,231,15.0,17.0,86,0.00,,,0.00,weatherlink.com 1.10,2013-01-09 22:34:00,
2013-01-09 17:49:00,43.8,40.0,30.15,WSW,246,12.0,17.0,87,0.00,,,0.00,weatherlink.com 1.10,2013-01-09 22:49:00,
2013-01-09 18:04:00,44.5,41.0,30.15,WSW,242,19.0,24.0,86,0.00,,,0.00,weatherlink.com 1.10,2013-01-09 23:04:00,
2013-01-09 18:19:00,44.3,40.0,30.15,WSW,245,15.0,21.0,86,0.00,,,0.00,weatherlink.com 1.10,2013-01-09 23:19:00,
2013-01-09 18:34:00,43.9,41.0,30.15,WSW,248,12.0,18.0,88,0.00,,,0.00,weatherlink.com 1.10,2013-01-09 23:34:00,
2013-01-09 18:49:00,43.4,40.0,30.14,WSW,258,13.0,16.0,89,0.00,,,0.00,weatherlink.com 1.10,2013-01-09 23:49:00,
2013-01-09 19:04:00,43.4,41.0,30.14,West,265,16.0,18.0,90,0.00,,,0.00,weatherlink.com 1.10,2013-01-10 00:04:00,
2013-01-09 19:19:00,43.4,41.0,30.14,West,260,14.0,17.0,90,0.00,,,0.00,weatherlink.com 1.10,2013-01-10 00:19:00,
2013-01-09 19:34:00,43.8,41.0,30.15,West,263,17.0,21.0,90,0.00,,,0.00,weatherlink.com 1.10,2013-01-10 00:34:00,
2013-01-09 19:49:00,44.5,42.0,30.15,West,266,19.0,22.0,89,0.00,,,0.00,weatherlink.com 1.10,2013-01-10 00:49:00,
2013-01-09 20:04:00,45.6,42.0,30.14,SW,236,20.0,27.0,86,0.00,,,0.00,weatherlink.com 1.10,2013-01-10 01:04:00,
2013-01-09 20:19:00,45.6,42.0,30.14,WSW,256,19.0,27.0,86,0.00,,,0.00,weatherlink.com 1.10,2013-01-10 01:19:00,
2013-01-09 20:34:00,45.7,42.0,30.14,WSW,255,21.0,27.0,85,0.00,,,0.00,weatherlink.com 1.10,2013-01-10 01:34:00,
2013-01-09 20:49:00,45.7,42.0,30.14,West,267,24.0,29.0,85,0.00,,,0.00,weatherlink.com 1.10,2013-01-10 01:49:00,
2013-01-09 21:04:00,45.2,41.0,30.14,West,259,19.0,27.0,86,0.00,,,0.00,weatherlink.com 1.10,2013-01-10 02:04:00,
2013-01-09 21:19:00,45.2,41.0,30.14,WSW,250,30.0,33.0,85,0.00,,,0.00,weatherlink.com 1.10,2013-01-10 02:19:00,
2013-01-09 21:34:00,45.2,41.0,30.15,WSW,254,27.0,34.0,85,0.00,,,0.00,weatherlink.com 1.10,2013-01-10 02:34:00,
2013-01-09 21:49:00,44.9,41.0,30.15,West,270,28.0,34.0,85,0.00,,,0.00,weatherlink.com 1.10,2013-01-10 02:49:00,
2013-01-09 22:04:00,44.2,41.0,30.16,West,279,23.0,27.0,87,0.00,,,0.00,weatherlink.com 1.10,2013-01-10 03:04:00,
2013-01-09 22:19:00,44.0,41.0,30.16,West,265,24.0,26.0,88,0.00,,,0.00,weatherlink.com 1.10,2013-01-10 03:19:00,
2013-01-09 22:34:00,44.2,41.0,30.16,West,266,24.0,31.0,87,0.00,,,0.00,weatherlink.com 1.10,2013-01-10 03:34:00,
2013-01-09 22:49:00,44.2,40.0,30.16,WSW,255,28.0,30.0,86,0.00,,,0.00,weatherlink.com 1.10,2013-01-10 03:49:00,
2013-01-09 23:04:00,44.2,40.0,30.16,West,267,23.0,29.0,86,0.00,,,0.00,weatherlink.com 1.10,2013-01-10 04:04:00,
2013-01-09 23:34:00,44.9,40.0,30.16,WSW,258,29.0,33.0,83,0.00,,,0.00,weatherlink.com 1.10,2013-01-10 04:34:00,
2013-01-09 23:49:00,45.0,40.0,30.16,WSW,247,29.0,34.0,82,0.00,,,0.00,weatherlink.com 1.10,2013-01-10 04:49:00,